DELTA 1 DEB, 10875

Orbit data source: Space-Track

DELTA 1 DEB, 10875 is space debris in SSO originally from a launch on Thu, 29 Jul 1976 UTC launched from the Air Force Western Test Range (AFWTR). Debris objects in space refer to the collection of defunct objects orbiting the Earth. Examples of debris include non-operational satellites, rocket bodies, and fragments generated from explosions, collisions, or faulty payload assembly.

Loading next visibility...
Identifier
10875, 1976-077DD
Orbit
SSO
Country
Flag of USUS
Related business
Manufacturer
Unknown
Mission
Spacecraft
Bus & Motor
Unknown
Mass
Unknown
Launch date (UTC)
1976-07-29 (50 years ago)
Launch vehicle
Unknown
Launch site
Air Force Western Test Range (AFWTR)
Object type
Payload
Rocket body
Debris
Shape & HBR
Unknown shape, 0.1 m
Radar Cross Section
Medium (>0.1 m² and <1 m²)

Expand to show TLE details & history
Last TLE update: 18 hours ago

TLE from 18 hours ago
0 DELTA 1 DEB
1 10875U 76077DD  26255.79291897  .00000007  00000-0  35984-3 0  9999
2 10875 101.9884 210.3153 0033508  65.1570 323.9162 12.47082818280043
Epoch: 2026-09-12T19:01Z
TLE epoch observation values (Epoch: 2026-09-12T19:01:48.199Z)
Latitude
28.20259°
Longitude
-73.43856°
Altitude
1,458.646 km
Speed
7.145 km/s
True Right ascension
13h 35m 14s
True Declination
28° 04' 21"
Sunlit
Object was in daylight at epoch
Visualization orbit readout
Latitude
Unknown
Longitude
Unknown
Altitude
Unknown
Speed
Unknown
Apparent Right ascension
Unknown
Apparent Declination
Unknown
Sunlit
N/A
Visualization observer readout
Local Sidereal Time
05:59:11
Azimuth
Unknown
Elevation
Unknown
Doppler factor
Unknown
Orbital elements
Apogee altitude
1,500.597 km
Perigee altitude
1,447.973 km
Semi-major axis
7,852.422 km
Eccentricity
0.00335
Inclination
101.9884°
RAAN
210.3153°
Arg. of periapsis
65.157°
True anomaly
323.68928°
Mean anomaly
323.9162°
Eccentric anomaly
323.80282°
Mean motion
3.11916 °/min
Orbital period
115.42 mins
BSTAR
0.00035984
Loading maneuver chart data...
Computing Atmospheric mass density...
Loading historical data...
Loading historical data...
Loading historical data...
Loading historical data...
Loading historical data...
Loading historical data...
Loading historical data...

Documentation

Showing up to 5 results
|